Cherry Valley

*Note: All times are displayed in the local standard time of the station location.
**Rain - Equipment is designed to accurately record liquid precipitation; under conditions when precipitation is not in liquid form, the data displayed may not properly reflect rainfall values.

Date Max Temp
(°C)
Min Temp
(°C)
Avg Temp
(°C)
Rain (mm) Avg RH (%)
Thu, Aug 01, 2019 25.1 25.1 25.1 0.0 46.9
Wed, Jul 31, 2019 25.4 23.3 24.9 0.0 59.9
Tue, Jul 30, 2019 24.8 24.8 24.8 0.0 64.5
Mon, Jul 29, 2019 24.8 24.8 24.8 0.0 64.5
Sun, Jul 28, 2019 24.8 24.8 24.8 0.0 64.5
Sat, Jul 27, 2019 24.8 24.8 24.8 0.0 64.5
Fri, Jul 26, 2019 27.8 24.5 25.0 0.0 70.4
DateTime Avg Temp (°C) Rain (mm) RH (%)
Fri, Aug 02, 2019 14:00 27.2 0.0 42.8
Fri, Aug 02, 2019 13:00 27.2 0.0 35.5
Fri, Aug 02, 2019 12:00 26.7 0.0 37.1
Fri, Aug 02, 2019 11:00 25.8 0.0 44.8
Fri, Aug 02, 2019 10:00 25.1 0.0 46.9
Fri, Aug 02, 2019 09:00 25.1 0.0 46.9
Fri, Aug 02, 2019 08:00 25.1 0.0 46.9
Fri, Aug 02, 2019 07:00 25.1 0.0 46.9
Fri, Aug 02, 2019 06:00 25.1 0.0 46.9
Fri, Aug 02, 2019 05:00 25.1 0.0 46.9
Fri, Aug 02, 2019 04:00 25.1 0.0 46.9
Fri, Aug 02, 2019 03:00 25.1 0.0 46.9
Fri, Aug 02, 2019 02:00 25.1 0.0 46.9
Fri, Aug 02, 2019 01:00 25.1 0.0 46.9
Fri, Aug 02, 2019 00:00 25.1 0.0 46.9
Thu, Aug 01, 2019 23:00 25.1 0.0 46.9
Thu, Aug 01, 2019 22:00 25.1 0.0 46.9
Thu, Aug 01, 2019 21:00 25.1 0.0 46.9
Thu, Aug 01, 2019 20:00 25.1 0.0 46.9
Thu, Aug 01, 2019 19:00 25.1 0.0 46.9
Thu, Aug 01, 2019 18:00 25.1 0.0 46.9
Thu, Aug 01, 2019 17:00 25.1 0.0 46.9
Thu, Aug 01, 2019 16:00 25.1 0.0 46.9
Thu, Aug 01, 2019 15:00 25.1 0.0 46.9
Thu, Aug 01, 2019 14:00 25.1 0.0 46.9
Thu, Aug 01, 2019 13:00 25.1 0.0 46.9
Thu, Aug 01, 2019 12:00 25.1 0.0 46.9
Thu, Aug 01, 2019 11:00 25.1 0.0 46.9
Thu, Aug 01, 2019 10:00 25.1 0.0 46.9
Thu, Aug 01, 2019 09:00 25.1 0.0 46.9
Thu, Aug 01, 2019 08:00 25.1 0.0 46.9
Thu, Aug 01, 2019 07:00 25.1 0.0 46.9
Thu, Aug 01, 2019 06:00 25.1 0.0 46.9
Thu, Aug 01, 2019 05:00 25.1 0.0 46.9
Thu, Aug 01, 2019 04:00 25.1 0.0 46.9
Thu, Aug 01, 2019 03:00 25.1 0.0 46.9
Thu, Aug 01, 2019 02:00 25.1 0.0 46.9
Thu, Aug 01, 2019 01:00 25.1 0.0 46.9
Thu, Aug 01, 2019 00:00 25.1 0.0 46.9
Wed, Jul 31, 2019 23:00 25.1 0.0 46.9
Wed, Jul 31, 2019 22:00 25.1 0.0 46.9
Wed, Jul 31, 2019 21:00 25.1 0.0 46.9
Wed, Jul 31, 2019 20:00 25.1 0.0 46.9
Wed, Jul 31, 2019 19:00 25.1 0.0 46.9
Wed, Jul 31, 2019 18:00 24.2 0.0 55.7
Wed, Jul 31, 2019 17:00 24.9 0.0 66.0
Wed, Jul 31, 2019 16:00 24.8 0.0 65.0
Wed, Jul 31, 2019 15:00 24.8 0.0 64.5


asterix Register now to access more data! asterix